Regional Weather Roundup
Issued by NWS

Home | Current Version | Previous Version | Text Only | Print | Product List | Glossary On
Versions: 1 2 3 4 5 6 7 8 9 10 11 12 13 14 15 16 17 18 19 20 21 22 23 24 25 26 27 28 29 30 31 32 33 34 35 36 37 38 39 40 41 42 43 44 45 46 47 48 49 50
000
ASUS44 KMEG 192210
RWRTN
TENNESSEE HOURLY STATE WEATHER ROUNDUP
NATIONAL WEATHER SERVICE MEMPHIS TN
400 PM CST THU JAN 19 2017

TNZ002-004-019-021-049-052-054-088>092-192300-
WEST TENNESSEE

CITY           SKY/WX    TMP DP  RH WIND       PRES   REMARKS
MEMPHIS INTL   LGT RAIN  63  61  93 S10       29.74R
NWS MEMPHIS      N/A     62 N/A N/A MISG        N/A
JACKSON        LGT RAIN  61  61 100 S6        29.75S
DYERSBURG      CLOUDY    63  59  88 S5        29.72S
UNION CITY     CLOUDY   N/A N/A N/A CALM      29.72S
PARIS          CLOUDY    55  55 100 SE12      29.75S
HUNTINGDON     CLOUDY    61  61 100 SE6       29.75R FOG
$$

TNZ008-025-027-028-033-062-065-066-192300-
NORTH MIDDLE TENNESSEE

CITY           SKY/WX    TMP DP  RH WIND       PRES   REMARKS
NASHVILLE      LGT RAIN  59  58  96 S3        29.80F FOG
PORTLAND       CLOUDY    57  55  94 S6        29.80F FOG
CLARKSVILLE    LGT RAIN  55  53  93 SE7       29.77S FOG
SMYRNA         LGT RAIN  59  58  96 E3        29.81F FOG
GALLATIN       CLOUDY    55  55 100 E5        29.83F FOG
CROSSVILLE     LGT RAIN  57  52  83 CALM      29.89S
$$

TNZ061-075-076-078-094-096-097-192300-
SOUTH MIDDLE TENNESSEE

CITY           SKY/WX    TMP DP  RH WIND       PRES   REMARKS
TULLAHOMA      CLOUDY    57  57 100 SE7       29.83F
WINCHESTER     CLOUDY    57  57 100 SE10      29.84S
MCMINNVILLE    CLOUDY    59  59 100 CALM      29.84F
COLUMBIA       PTSUNNY  N/A N/A N/A SE5       29.77S
SHELBYVILLE    CLOUDY    61  61 100 SE8       29.81F
$$

TNZ017-018-042-046-047-192300-
NORTHEAST TENNESSEE

CITY           SKY/WX    TMP DP  RH WIND       PRES   REMARKS
TRI CITIES     CLOUDY    59  38  45 W3        29.95S
ELIZABETHTON   CLOUDY    63  39  42 NW3       29.94S
$$

TNZ012-013-036-069-073-074-192300-
CENTRAL EAST TENNESSEE

CITY           SKY/WX    TMP DP  RH WIND       PRES   REMARKS
KNOXVILLE      CLOUDY    57  45  64 NE7       29.90F
OAK RIDGE      LGT RAIN  55  44  66 NE3       29.92F
GATLINBURG     CLEAR     55  45  67 NE3       29.91F
MORRISTOWN     MOCLDY    55  46  71 NE6       29.92F
JACKSBORO      CLOUDY    52  48  87 CALM      29.96S
$$

TNZ083-085-099-192300-
SOUTHEAST TENNESSEE

CITY           SKY/WX    TMP DP  RH WIND       PRES   REMARKS
CHATTANOOGA    CLOUDY    58  46  64 N3        29.88F
$$

SKY/WX REPORTED AS FAIR MEANS FEW OR NO CLOUDS BELOW
12 THOUSAND FEET.




USA.gov is the U.S. government's official web portal to all federal, state and local government web resources and services.